FALCON 9 R/B, 60234

Orbit data source: Space-Track

FALCON 9 R/B, 60234 is space debris in HEO originally from a launch on Mon, 08 Jul 2024 UTC launched from the Air Force Eastern Test Range (AFETR). Debris objects in space refer to the collection of defunct objects orbiting the Earth. Examples of debris include non-operational satellites, rocket bodies, and fragments generated from explosions, collisions, or faulty payload assembly.

Loading next visibility...
Identifier
60234, 2024-127B
Orbit
HEO
Country
Flag of USUS
Related business
Manufacturer
SpaceX
Mission
Spacecraft
Bus & Motor
F9ST2, Unknown motor
Mass
~4,000 kg wet, ~4,000 kg dry
Launch date (UTC)
2024-07-08 (1 year ago)
Launch vehicle
Unknown
Launch site
Air Force Eastern Test Range (AFETR)
Object type
Payload
Rocket body
Debris
Shape & HBR
Cyl, 7.8 m
Radar Cross Section
39.980 m², Large (>1 m²)

Expand to show TLE details & history
Last TLE update: 2 days ago

TLE from 2 days ago
0 FALCON 9 R/B
1 60234U 24127B   25340.08482626 -.00000075  00000-0  72547-3 0  9992
2 60234  26.3103  37.8308 8332958 305.3632   3.1646  1.03881652  5088
Epoch: 2025-12-06T02:02Z
TLE epoch observation values (Epoch: 2025-12-06T02:02:08.988Z)
Latitude
-0.00045°
Longitude
-67.88504°
Altitude
2,242.068 km
Speed
9.099 km/s
True Right ascension
02h 31m 04s
True Declination
0° 00' 02"
Sunlit
Object was in full shadow at epoch
Visualization orbit readout
Latitude
Unknown
Longitude
Unknown
Altitude
Unknown
Speed
Unknown
Apparent Right ascension
Unknown
Apparent Declination
Unknown
Sunlit
N/A
Visualization observer readout
Local Sidereal Time
20:50:37
Azimuth
Unknown
Elevation
Unknown
Doppler factor
Unknown
Orbital elements
Apogee altitude
69,129.202 km
Perigee altitude
487.853 km
Semi-major axis
41,186.665 km
Eccentricity
0.8333
Inclination
26.3103°
RAAN
37.8308°
Arg. of periapsis
305.3632°
True anomaly
54.36359°
Mean anomaly
3.1646°
Eccentric anomaly
17.6051°
Mean motion
0.25966 °/min
Orbital period
1,386.42 mins
BSTAR
0.00072547
Loading maneuver chart data...
Computing Atmospheric mass density...
Loading historical data...
Loading historical data...
Loading historical data...
Loading historical data...
Loading historical data...
Loading historical data...
Loading historical data...
Other satellites on launch #127 in the year 2024 (2024-07-08 UTC)

Documentation

Showing up to 5 results
|